Weather History for KCKV - March, 2013

Change the Weather History Date:

Friday, March 15, 2013

  Actual Average Record
Temperature  
Mean Temperature 54 °F -  
Max Temperature 75 °F - 82 °F (1967)
Min Temperature 32 °F - 20 °F (1993)
Degree Days  
Heating Degree Days 11    
Month to date heating degree days 351  
Since 1 July heating degree days 3268  
Cooling Degree Days 0    
Month to date cooling degree days 0  
Growing Degree Days 2 (Base 50)    
Moisture  
Dew Point 39 °F    
Average Humidity 64    
Maximum Humidity 92    
Minimum Humidity 35    
Precipitation  
Precipitation 0.01 in - 1.12 in (1990)
Month to date precipitation 2.44  
Sea Level Pressure  
Sea Level Pressure 29.98 in    
Wind  
Wind Speed 9 mph (SSW)    
Max Wind Speed 20 mph    
Max Gust Speed 26 mph    
Visibility 10 miles    
Events      
T = Trace of Precipitation, MM = Missing Value Source: NWS Daily Summary

Daily Weather History Graph

Daily Weather History Graph

Search for Another Location

Airport or City:

Trip Planner

Search our weather history database for the weather conditions in past years. The results will help you decide how hot, cold, wet, or windy it might be!

Date:

Astronomy

Mar. 15, 2013 Rise Set
Actual Time 7:00 AM CDT 6:57 PM CDT
Civil Twilight 6:34 AM CDT 7:23 PM CDT
Nautical Twilight 6:04 AM CDT 7:53 PM CDT
Astronomical Twilight 5:34 AM CDT 8:23 PM CDT
Moon 8:57 AM CDT (3/15) 11:03 PM CDT (3/15)
Length of Visible Light 12h 48m
Length of Day
11h 57m
Waxing Crescent, 15% of the Moon is Illuminated
Mar 15
Waxing Crescent
Mar 19
First Quarter
Mar 27
Full
Apr 2
Last Quarter
Apr 10
New

Hourly Weather History & Observations

Time (CDT) Temp. Windchill Dew Point Humidity Pressure Visibility Wind Dir Wind Speed Gust Speed Precip Events Conditions
12:52 AM 35.1 °F 29.3 °F 33.1 °F 92% 30.17 in 7.0 mi SSE 6.9 mph - N/A   Clear
1:52 AM 36.0 °F 30.3 °F 34.0 °F 93% 30.15 in 10.0 mi SSE 6.9 mph - N/A   Clear
2:52 AM 35.1 °F 30.1 °F 33.1 °F 92% 30.12 in 10.0 mi SSE 5.8 mph - N/A   Clear
3:52 AM 36.0 °F 33.3 °F 32.0 °F 86% 30.09 in 10.0 mi SSE 3.5 mph - N/A   Clear
4:52 AM 34.0 °F 31.0 °F 30.9 °F 89% 30.08 in 10.0 mi SSE 3.5 mph - N/A   Clear
5:52 AM 33.1 °F 28.7 °F 30.0 °F 89% 30.08 in 10.0 mi SE 4.6 mph - N/A   Clear
6:52 AM 32.0 °F 28.7 °F 30.0 °F 92% 30.06 in 10.0 mi SSE 3.5 mph - N/A   Clear
7:52 AM 36.0 °F 31.1 °F 32.0 °F 86% 30.06 in 10.0 mi South 5.8 mph - N/A   Clear
8:52 AM 46.9 °F - 37.0 °F 68% 30.05 in 10.0 mi SW 5.8 mph - N/A   Clear
9:52 AM 53.1 °F - 39.0 °F 59% 30.04 in 10.0 mi SW 8.1 mph - 0.01 in   Clear
10:52 AM 57.9 °F - 41.0 °F 53% 30.03 in 10.0 mi WSW 8.1 mph - N/A   Clear
11:52 AM 63.0 °F - 42.1 °F 46% 30.01 in 10.0 mi WSW 9.2 mph - N/A   Clear
12:52 PM 68.0 °F - 43.0 °F 40% 29.98 in 10.0 mi WSW 8.1 mph - N/A   Clear
1:52 PM 70.0 °F - 44.1 °F 39% 29.96 in 10.0 mi WSW 10.4 mph - N/A   Clear
2:52 PM 72.0 °F - 44.1 °F 37% 29.92 in 10.0 mi WSW 11.5 mph 20.7 mph N/A   Clear
3:52 PM 73.9 °F - 44.1 °F 34% 29.89 in 10.0 mi WSW 13.8 mph 21.9 mph N/A   Clear
4:52 PM 73.9 °F - 45.0 °F 35% 29.87 in 10.0 mi SW 12.7 mph 17.3 mph N/A   Clear
5:52 PM 73.9 °F - 44.1 °F 34% 29.86 in 10.0 mi WSW 9.2 mph - N/A   Scattered Clouds
6:52 PM 72.0 °F - 43.0 °F 35% 29.85 in 10.0 mi SW 6.9 mph - N/A   Partly Cloudy
7:52 PM 69.1 °F - 43.0 °F 39% 29.85 in 10.0 mi SSW 4.6 mph - N/A   Clear
8:52 PM 70.0 °F - 42.1 °F 36% 29.84 in 10.0 mi SW 10.4 mph - N/A   Clear
9:52 PM 70.0 °F - 44.1 °F 39% 29.84 in 10.0 mi SW 12.7 mph 19.6 mph N/A   Clear
10:52 PM 69.1 °F - 46.0 °F 44% 29.83 in 10.0 mi SW 13.8 mph 21.9 mph N/A   Partly Cloudy
11:52 PM 68.0 °F - 46.9 °F 47% 29.82 in 10.0 mi SW 17.3 mph 23.0 mph N/A   Clear